This is the latest recevied weather packets stored in our database for station/object KC0UFP. If no packets are shown the sender has not sent any weather packets the latest 10 day(s).
| Time | Temp. | Humidity | Pressure | Rain* | Wind** | Luminosity | Snow |
|---|---|---|---|---|---|---|---|
| 1777982770 | 16.11° C | 90% | 1008.8 hPa | 6.1 mm | - | 5 W/m² | - |
| 1777982466 | 16.67° C | 88% | 1008.4 hPa | 4.83 mm | - | 4 W/m² | - |
| 1777982160 | 17.22° C | 85% | 1008.2 hPa | 2.29 mm | - | 3 W/m² | - |
| 1777981858 | 17.78° C | 81% | 1008.2 hPa | 1.27 mm | - | 3 W/m² | - |
| 1777981555 | 17.78° C | 78% | 1007.8 hPa | 0 mm | - | 2 W/m² | - |
| 1777981251 | 18.33° C | 76% | 1007.8 hPa | 0 mm | - | 2 W/m² | - |
| 1777980947 | 18.33° C | 74% | 1007.6 hPa | 0 mm | - | 1 W/m² | - |
| 1777980644 | 18.33° C | 73% | 1007.5 hPa | 0 mm | - | 1 W/m² | - |
| 1777980340 | 18.33° C | 74% | 1007.5 hPa | 0 mm | - | 2 W/m² | - |
| 1777980039 | 18.33° C | 73% | 1007.4 hPa | 0 mm | - | 2 W/m² | - |
| 1777979732 | 18.33° C | 73% | 1007.3 hPa | 0 mm | - | 3 W/m² | - |
| 1777979429 | 18.33° C | 73% | 1007.4 hPa | 0 mm | - | 1 W/m² | - |
| 1777979125 | 18.33° C | 73% | 1007.1 hPa | 0 mm | - | 1 W/m² | - |
| 1777978822 | 18.33° C | 73% | 1007.3 hPa | 0 mm | - | 0 W/m² | - |
| 1777978519 | 18.33° C | 73% | 1007.1 hPa | 0 mm | - | 0 W/m² | - |
| 1777978214 | 18.33° C | 72% | 1007.2 hPa | 0 mm | - | 0 W/m² | - |
| 1777977912 | 18.33° C | 72% | 1007.2 hPa | 0 mm | - | 0 W/m² | - |
| 1777977609 | 18.33° C | 72% | 1007.2 hPa | 0 mm | - | 0 W/m² | - |
| 1777977306 | 18.33° C | 72% | 1007.2 hPa | 0 mm | - | 0 W/m² | - |
| 1777977003 | 18.33° C | 72% | 1007.1 hPa | 0 mm | - | 0 W/m² | - |
| 1777976700 | 17.78° C | 72% | 1007.2 hPa | 0 mm | - | 0 W/m² | - |
| 1777976397 | 17.78° C | 72% | 1007.2 hPa | 0 mm | - | 0 W/m² | - |
| 1777976090 | 17.78° C | 72% | 1007.5 hPa | 0 mm | - | 0 W/m² | - |
| 1777975786 | 17.78° C | 72% | 1007.5 hPa | 0 mm | - | 0 W/m² | - |
| 1777975484 | 17.78° C | 72% | 1007.3 hPa | 0 mm | - | 0 W/m² | - |
* Rain latest hour (hover to see other rain measurements)
** Current wind speed in m/s (hover to see current wind gust speed)